Time,TemperatureF,DewpointF,PressureIn,WindDirection,WindDirectionDegrees,WindSpeedMPH,WindSpeedGustMPH,Humidity,HourlyPrecipIn,Conditions,Clouds,dailyrainin,SolarRadiationWatts/m^2,SoftwareType,DateUTC
2013-09-23 00:01:00,79.5,73.5,29.87,SSE,162,0.0,0.0,82,0.00,CLR,,0.00,0.0,WeatherDisplay:10.37,2013-09-23 04:01:00,
2013-09-23 00:02:00,79.5,73.9,29.87,SSE,162,0.0,0.0,83,0.00,CLR,,0.00,0.0,WeatherDisplay:10.37,2013-09-23 04:02:00,
2013-09-23 00:07:00,79.4,73.4,29.87,SSE,162,0.0,0.0,82,0.00,CLR,,0.00,0.0,WeatherDisplay:10.37,2013-09-23 04:07:00,
2013-09-23 00:12:00,79.4,73.8,29.87,SSE,162,0.0,0.0,83,0.00,CLR,,0.00,0.0,WeatherDisplay:10.37,2013-09-23 04:12:00,
2013-09-23 00:17:00,79.4,73.8,29.87,SSE,162,0.0,0.0,83,0.00,CLR,,0.00,0.0,WeatherDisplay:10.37,2013-09-23 04:17:00,
2013-09-23 00:22:00,79.3,73.7,29.87,SSE,162,0.0,0.0,83,0.00,CLR,,0.00,0.0,WeatherDisplay:10.37,2013-09-23 04:22:00,
2013-09-23 00:27:00,79.2,73.9,29.88,SSE,162,0.0,0.0,84,0.00,CLR,,0.00,0.0,WeatherDisplay:10.37,2013-09-23 04:27:00,
2013-09-23 00:32:00,79.1,73.8,29.87,SSE,162,0.0,0.0,84,0.00,CLR,,0.00,0.0,WeatherDisplay:10.37,2013-09-23 04:32:00,
2013-09-23 00:37:00,79.0,73.7,29.88,SSE,162,0.0,0.0,84,0.00,CLR,,0.00,0.0,WeatherDisplay:10.37,2013-09-23 04:37:00,
2013-09-23 00:42:00,78.9,74.0,29.87,SSE,162,0.0,0.0,85,0.00,CLR,,0.00,0.0,WeatherDisplay:10.37,2013-09-23 04:42:00,
2013-09-23 00:47:00,78.7,73.8,29.88,SSE,162,0.0,0.0,85,0.00,CLR,,0.00,0.0,WeatherDisplay:10.37,2013-09-23 04:47:00,
2013-09-23 00:52:00,78.5,73.6,29.87,SSE,162,0.0,0.0,85,0.00,CLR,,0.00,0.0,WeatherDisplay:10.37,2013-09-23 04:52:00,
2013-09-23 00:57:00,78.4,73.5,29.87,SSE,162,0.0,0.0,85,0.00,CLR,,0.00,0.0,WeatherDisplay:10.37,2013-09-23 04:57:00,
2013-09-23 01:02:00,78.3,73.8,29.87,SSE,162,0.0,0.0,86,0.00,CLR,,0.00,0.0,WeatherDisplay:10.37,2013-09-23 05:02:00,
2013-09-23 01:07:00,78.2,73.7,29.87,SSE,162,0.0,0.0,86,0.00,CLR,,0.00,0.0,WeatherDisplay:10.37,2013-09-23 05:07:00,
2013-09-23 01:12:00,78.1,73.9,29.87,SSE,162,0.0,0.0,87,0.00,CLR,,0.00,0.0,WeatherDisplay:10.37,2013-09-23 05:12:00,
2013-09-23 01:17:00,78.0,73.8,29.87,SSE,162,0.0,0.0,87,0.00,CLR,,0.00,0.0,WeatherDisplay:10.37,2013-09-23 05:17:00,
2013-09-23 01:22:00,77.9,73.7,29.87,SSE,162,0.0,0.0,87,0.00,CLR,,0.00,0.0,WeatherDisplay:10.37,2013-09-23 05:22:00,
2013-09-23 01:27:00,77.8,73.6,29.87,SSE,162,0.0,0.0,87,0.00,CLR,,0.00,0.0,WeatherDisplay:10.37,2013-09-23 05:27:00,
2013-09-23 01:32:00,77.7,73.9,29.87,SSE,162,0.0,0.0,88,0.00,CLR,,0.00,0.0,WeatherDisplay:10.37,2013-09-23 05:32:00,
2013-09-23 01:37:00,77.6,73.8,29.87,SSE,162,0.0,0.0,88,0.00,CLR,,0.00,0.0,WeatherDisplay:10.37,2013-09-23 05:37:00,
2013-09-23 01:42:00,77.5,73.7,29.87,SSE,162,0.0,0.0,88,0.00,CLR,,0.00,0.0,WeatherDisplay:10.37,2013-09-23 05:42:00,
2013-09-23 01:47:00,77.3,73.5,29.88,SSE,162,0.0,0.0,88,0.00,CLR,,0.00,0.0,WeatherDisplay:10.37,2013-09-23 05:47:00,
2013-09-23 01:52:00,77.3,73.8,29.88,SSE,162,0.0,0.0,89,0.00,CLR,,0.00,0.0,WeatherDisplay:10.37,2013-09-23 05:52:00,
2013-09-23 01:57:00,77.2,73.7,29.88,SSE,162,0.0,0.0,89,0.00,CLR,,0.00,0.0,WeatherDisplay:10.37,2013-09-23 05:57:00,
2013-09-23 02:02:00,77.2,73.7,29.87,SSE,162,0.0,0.0,89,0.00,CLR,,0.00,0.0,WeatherDisplay:10.37,2013-09-23 06:02:00,
2013-09-23 02:07:00,77.1,73.6,29.87,SSE,162,0.0,0.0,89,0.00,CLR,,0.00,0.0,WeatherDisplay:10.37,2013-09-23 06:07:00,
2013-09-23 02:12:00,77.0,73.5,29.88,SSE,162,0.0,0.0,89,0.00,CLR,,0.00,0.0,WeatherDisplay:10.37,2013-09-23 06:12:00,
2013-09-23 02:17:00,77.0,73.5,29.88,SSE,162,0.0,0.0,89,0.00,CLR,,0.00,0.0,WeatherDisplay:10.37,2013-09-23 06:17:00,
2013-09-23 02:22:00,76.9,73.7,29.87,SSE,162,0.0,0.0,90,0.00,CLR,,0.00,0.0,WeatherDisplay:10.37,2013-09-23 06:22:00,
2013-09-23 02:27:00,76.9,73.7,29.87,SSE,162,0.0,0.0,90,0.00,CLR,,0.00,0.0,WeatherDisplay:10.37,2013-09-23 06:27:00,
2013-09-23 02:32:00,76.9,73.7,29.87,SSE,162,0.0,0.0,90,0.00,CLR,,0.00,0.0,WeatherDisplay:10.37,2013-09-23 06:32:00,
2013-09-23 02:37:00,76.9,73.7,29.87,SSE,162,0.0,0.0,90,0.00,CLR,,0.00,0.0,WeatherDisplay:10.37,2013-09-23 06:37:00,
2013-09-23 02:42:00,76.9,73.7,29.87,SSE,162,0.0,0.0,90,0.00,CLR,,0.00,0.0,WeatherDisplay:10.37,2013-09-23 06:42:00,
2013-09-23 02:47:00,76.8,74.0,29.87,SSE,162,0.0,0.0,91,0.00,CLR,,0.00,0.0,WeatherDisplay:10.37,2013-09-23 06:47:00,
2013-09-23 02:52:00,76.8,74.0,29.87,SSE,162,0.0,0.0,91,0.00,CLR,,0.00,0.0,WeatherDisplay:10.37,2013-09-23 06:52:00,
2013-09-23 02:57:00,76.7,73.9,29.87,SSE,162,0.0,0.0,91,0.00,CLR,,0.00,0.0,WeatherDisplay:10.37,2013-09-23 06:57:00,
2013-09-23 03:02:00,76.7,73.9,29.87,SSE,162,0.0,0.0,91,0.00,CLR,,0.00,0.0,WeatherDisplay:10.37,2013-09-23 07:02:00,
2013-09-23 03:07:00,76.7,73.9,29.87,SSE,162,0.0,0.0,91,0.00,CLR,,0.00,0.0,WeatherDisplay:10.37,2013-09-23 07:07:00,
2013-09-23 03:13:00,76.6,73.8,29.86,SSE,162,0.0,0.0,91,0.00,CLR,,0.00,0.0,WeatherDisplay:10.37,2013-09-23 07:13:00,
2013-09-23 03:18:00,76.6,74.1,29.86,SSE,162,0.0,0.0,92,0.00,CLR,,0.00,0.0,WeatherDisplay:10.37,2013-09-23 07:18:00,
2013-09-23 03:23:00,76.6,74.1,29.86,SSE,162,0.0,0.0,92,0.00,CLR,,0.00,0.0,WeatherDisplay:10.37,2013-09-23 07:23:00,
2013-09-23 03:28:00,76.6,74.1,29.86,SSE,162,0.0,0.0,92,0.00,CLR,,0.00,0.0,WeatherDisplay:10.37,2013-09-23 07:28:00,
2013-09-23 03:33:00,76.6,74.1,29.86,SSE,162,0.0,0.0,92,0.00,CLR,,0.00,0.0,WeatherDisplay:10.37,2013-09-23 07:33:00,
2013-09-23 03:38:00,76.5,74.0,29.86,SSE,162,0.0,0.0,92,0.00,CLR,,0.00,0.0,WeatherDisplay:10.37,2013-09-23 07:38:00,
2013-09-23 03:43:00,76.5,74.0,29.86,SSE,162,0.0,0.0,92,0.00,CLR,,0.00,0.0,WeatherDisplay:10.37,2013-09-23 07:43:00,
2013-09-23 03:48:00,76.5,74.0,29.86,SSE,162,0.0,0.0,92,0.00,CLR,,0.00,0.0,WeatherDisplay:10.37,2013-09-23 07:48:00,
2013-09-23 03:53:00,76.4,73.9,29.86,SSE,162,0.0,0.0,92,0.00,CLR,,0.00,0.0,WeatherDisplay:10.37,2013-09-23 07:53:00,
2013-09-23 03:58:00,76.3,73.8,29.86,SSE,162,0.0,0.0,92,0.00,CLR,,0.00,0.0,WeatherDisplay:10.37,2013-09-23 07:58:00,
2013-09-23 04:03:00,76.3,73.8,29.86,SSE,162,0.0,0.0,92,0.00,CLR,,0.00,0.0,WeatherDisplay:10.37,2013-09-23 08:03:00,
2013-09-23 04:08:00,76.3,73.8,29.86,SSE,162,0.0,0.0,92,0.00,CLR,,0.00,0.0,WeatherDisplay:10.37,2013-09-23 08:08:00,
2013-09-23 04:13:00,76.2,73.7,29.85,SSE,162,0.0,0.0,92,0.00,CLR,,0.00,0.0,WeatherDisplay:10.37,2013-09-23 08:13:00,
2013-09-23 04:18:00,76.2,74.0,29.85,SSE,162,0.0,0.0,93,0.00,CLR,,0.00,0.0,WeatherDisplay:10.37,2013-09-23 08:18:00,
2013-09-23 04:23:00,76.2,74.0,29.86,SSE,162,0.0,0.0,93,0.00,CLR,,0.00,0.0,WeatherDisplay:10.37,2013-09-23 08:23:00,
2013-09-23 04:28:00,76.2,74.0,29.86,SSE,162,0.0,0.0,93,0.00,CLR,,0.00,0.0,WeatherDisplay:10.37,2013-09-23 08:28:00,
2013-09-23 04:33:00,76.2,74.0,29.86,SSE,162,0.0,0.0,93,0.00,CLR,,0.00,0.0,WeatherDisplay:10.37,2013-09-23 08:33:00,
2013-09-23 04:38:00,76.1,73.9,29.86,SSE,162,0.0,0.0,93,0.00,CLR,,0.00,0.0,WeatherDisplay:10.37,2013-09-23 08:38:00,
2013-09-23 04:43:00,76.2,74.0,29.86,SSE,162,0.0,0.0,93,0.00,CLR,,0.00,0.0,WeatherDisplay:10.37,2013-09-23 08:43:00,
2013-09-23 04:48:00,76.2,74.0,29.86,SSE,162,0.0,0.0,93,0.00,CLR,,0.00,0.0,WeatherDisplay:10.37,2013-09-23 08:48:00,
2013-09-23 04:53:00,76.2,74.0,29.86,SSE,162,0.0,0.0,93,0.00,CLR,,0.00,0.0,WeatherDisplay:10.37,2013-09-23 08:53:00,
2013-09-23 04:58:00,76.3,74.1,29.86,SSW,201,0.0,0.0,93,0.00,CLR,,0.00,0.0,WeatherDisplay:10.37,2013-09-23 08:58:00,
2013-09-23 05:03:00,76.3,74.4,29.86,SSW,193,0.0,0.0,94,0.00,CLR,,0.00,0.0,WeatherDisplay:10.37,2013-09-23 09:03:00,
2013-09-23 05:08:00,76.3,74.1,29.87,SSW,193,0.0,0.0,93,0.00,CLR,,0.00,0.0,WeatherDisplay:10.37,2013-09-23 09:08:00,
2013-09-23 05:13:00,76.3,74.1,29.87,SSW,193,0.0,0.0,93,0.00,CLR,,0.00,0.0,WeatherDisplay:10.37,2013-09-23 09:13:00,
2013-09-23 05:18:00,76.3,74.1,29.87,SSW,193,0.0,0.0,93,0.00,CLR,,0.00,0.0,WeatherDisplay:10.37,2013-09-23 09:18:00,
2013-09-23 05:23:00,76.3,74.1,29.88,SSW,193,0.0,0.0,93,0.00,CLR,,0.00,0.0,WeatherDisplay:10.37,2013-09-23 09:23:00,
2013-09-23 05:28:00,76.3,74.1,29.88,SSW,193,0.0,0.0,93,0.00,CLR,,0.00,0.0,WeatherDisplay:10.37,2013-09-23 09:28:00,
2013-09-23 05:33:00,76.4,74.5,29.88,SSW,193,0.0,0.0,94,0.00,CLR,,0.00,0.0,WeatherDisplay:10.37,2013-09-23 09:33:00,
2013-09-23 05:38:00,76.5,74.6,29.88,SSW,193,0.0,0.0,94,0.00,CLR,,0.00,0.0,WeatherDisplay:10.37,2013-09-23 09:38:00,
2013-09-23 05:43:00,76.5,74.6,29.88,SSW,193,0.0,0.0,94,0.00,CLR,,0.00,0.0,WeatherDisplay:10.37,2013-09-23 09:43:00,
2013-09-23 05:48:00,76.6,74.7,29.88,SSW,193,0.0,0.0,94,0.00,CLR,,0.00,0.0,WeatherDisplay:10.37,2013-09-23 09:48:00,
2013-09-23 05:53:00,76.6,74.4,29.89,SSW,193,0.0,0.0,93,0.00,CLR,,0.00,0.0,WeatherDisplay:10.37,2013-09-23 09:53:00,
2013-09-23 05:58:00,76.6,74.7,29.88,SSW,193,0.0,0.0,94,0.00,CLR,,0.00,0.0,WeatherDisplay:10.37,2013-09-23 09:58:00,
2013-09-23 06:03:00,76.6,74.4,29.89,SSW,193,0.0,0.0,93,0.00,CLR,,0.00,0.0,WeatherDisplay:10.37,2013-09-23 10:03:00,
2013-09-23 06:08:00,76.6,74.7,29.89,SSW,193,0.0,0.0,94,0.00,CLR,,0.00,0.0,WeatherDisplay:10.37,2013-09-23 10:08:00,
2013-09-23 06:13:00,76.6,74.4,29.89,SSW,193,0.0,0.0,93,0.00,CLR,,0.00,0.0,WeatherDisplay:10.37,2013-09-23 10:13:00,
2013-09-23 06:18:00,76.6,74.4,29.89,SSW,193,0.0,0.0,93,0.00,CLR,,0.00,0.0,WeatherDisplay:10.37,2013-09-23 10:18:00,
2013-09-23 06:23:00,76.5,74.3,29.89,SSW,193,0.0,0.0,93,0.00,CLR,,0.00,0.0,WeatherDisplay:10.37,2013-09-23 10:23:00,
2013-09-23 06:28:00,76.5,74.6,29.89,SSW,193,0.0,0.0,94,0.00,CLR,,0.00,0.0,WeatherDisplay:10.37,2013-09-23 10:28:00,
2013-09-23 06:33:00,76.4,74.5,29.89,SSW,193,0.0,0.0,94,0.00,CLR,,0.00,0.0,WeatherDisplay:10.37,2013-09-23 10:33:00,
2013-09-23 06:39:00,76.4,74.5,29.89,SSW,193,0.0,0.0,94,0.00,CLR,,0.00,0.0,WeatherDisplay:10.37,2013-09-23 10:39:00,
2013-09-23 06:44:00,76.4,74.5,29.89,SSW,193,0.0,0.0,94,0.00,CLR,,0.00,0.0,WeatherDisplay:10.37,2013-09-23 10:44:00,
2013-09-23 06:49:00,76.4,74.5,29.89,SSW,193,0.0,0.0,94,0.00,CLR,,0.00,0.0,WeatherDisplay:10.37,2013-09-23 10:49:00,
2013-09-23 06:54:00,76.3,74.4,29.89,SSW,193,0.0,0.0,94,0.00,CLR,,0.00,0.0,WeatherDisplay:10.37,2013-09-23 10:54:00,
2013-09-23 06:59:00,76.2,74.3,29.89,SSW,193,0.0,0.0,94,0.00,CLR,,0.00,0.0,WeatherDisplay:10.37,2013-09-23 10:59:00,
2013-09-23 07:04:00,76.2,74.3,29.89,SSW,193,0.0,0.0,94,0.00,OVC,,0.00,0.0,WeatherDisplay:10.37,2013-09-23 11:04:00,
2013-09-23 07:09:00,76.2,74.3,29.90,SSW,193,0.0,0.0,94,0.00,OVC,,0.00,0.0,WeatherDisplay:10.37,2013-09-23 11:09:00,
2013-09-23 07:14:00,76.1,74.2,29.90,SSW,193,0.0,0.0,94,0.00,OVC,,0.00,0.0,WeatherDisplay:10.37,2013-09-23 11:14:00,
2013-09-23 07:19:00,76.1,74.2,29.90,SSW,193,0.0,0.0,94,0.00,BKN,,0.00,9.0,WeatherDisplay:10.37,2013-09-23 11:19:00,
2013-09-23 07:24:00,76.1,74.2,29.90,SSW,193,0.0,0.0,94,0.00,BKN,,0.00,11.0,WeatherDisplay:10.37,2013-09-23 11:24:00,
2013-09-23 07:29:00,76.1,74.2,29.90,SSW,193,0.0,0.0,94,0.00,BKN,,0.00,14.0,WeatherDisplay:10.37,2013-09-23 11:29:00,
2013-09-23 07:34:00,76.1,74.6,29.90,SSW,193,0.0,0.0,95,0.00,BKN,,0.00,18.0,WeatherDisplay:10.37,2013-09-23 11:34:00,
2013-09-23 07:39:00,76.2,74.7,29.91,SSW,193,0.0,0.0,95,0.00,BKN,,0.00,23.0,WeatherDisplay:10.37,2013-09-23 11:39:00,
2013-09-23 07:44:00,76.3,74.8,29.91,SSW,193,0.0,0.0,95,0.00,BKN,,0.00,37.0,WeatherDisplay:10.37,2013-09-23 11:44:00,
2013-09-23 07:49:00,76.4,74.9,29.92,SSW,193,0.0,0.0,95,0.00,BKN,,0.00,42.0,WeatherDisplay:10.37,2013-09-23 11:49:00,
2013-09-23 07:54:00,76.5,75.3,29.92,SSW,193,0.0,0.0,96,0.00,BKN,,0.00,42.0,WeatherDisplay:10.37,2013-09-23 11:54:00,
2013-09-23 07:59:00,76.7,75.2,29.92,SSW,193,0.0,0.0,95,0.00,BKN,,0.00,47.0,WeatherDisplay:10.37,2013-09-23 11:59:00,
2013-09-23 08:04:00,76.9,75.4,29.92,SSW,193,0.0,0.0,95,0.00,BKN,,0.00,51.0,WeatherDisplay:10.37,2013-09-23 12:04:00,
2013-09-23 08:09:00,77.0,75.5,29.92,SSW,193,0.0,0.0,95,0.00,BKN,,0.00,63.0,WeatherDisplay:10.37,2013-09-23 12:09:00,
2013-09-23 08:14:00,77.1,75.6,29.92,SSW,193,0.0,0.0,95,0.00,BKN,,0.00,86.0,WeatherDisplay:10.37,2013-09-23 12:14:00,
2013-09-23 08:19:00,77.3,75.8,29.92,SSW,193,0.0,0.0,95,0.00,BKN,,0.00,81.0,WeatherDisplay:10.37,2013-09-23 12:19:00,
2013-09-23 08:24:00,77.6,76.1,29.92,SSW,193,0.0,0.0,95,0.00,BKN,,0.00,114.0,WeatherDisplay:10.37,2013-09-23 12:24:00,
2013-09-23 08:29:00,77.9,76.4,29.92,SSW,193,0.0,0.0,95,0.00,SCT,,0.00,199.0,WeatherDisplay:10.37,2013-09-23 12:29:00,
2013-09-23 08:34:00,78.3,76.4,29.92,SSW,193,0.0,0.0,94,0.00,FEW,,0.00,192.0,WeatherDisplay:10.37,2013-09-23 12:34:00,
2013-09-23 08:39:00,79.0,76.8,29.92,SSW,193,0.0,0.0,93,0.00,FEW,,0.00,156.0,WeatherDisplay:10.37,2013-09-23 12:39:00,
2013-09-23 08:44:00,79.6,77.4,29.92,SSW,193,0.0,0.0,93,0.00,FEW,,0.00,262.0,WeatherDisplay:10.37,2013-09-23 12:44:00,
2013-09-23 08:49:00,80.5,78.0,29.92,SSW,193,0.0,0.0,92,0.00,CLR,,0.00,336.0,WeatherDisplay:10.37,2013-09-23 12:49:00,
2013-09-23 08:54:00,81.3,78.4,29.92,SSW,193,0.0,0.0,91,0.00,CLR,,0.00,359.0,WeatherDisplay:10.37,2013-09-23 12:54:00,
2013-09-23 08:59:00,82.1,78.2,29.92,SSW,193,0.0,0.0,88,0.00,FEW,,0.00,169.0,WeatherDisplay:10.37,2013-09-23 12:59:00,
2013-09-23 09:04:00,82.7,78.1,29.93,SSW,193,0.0,0.0,86,0.00,SCT,,0.00,274.0,WeatherDisplay:10.37,2013-09-23 13:04:00,
2013-09-23 09:09:00,83.3,78.3,29.93,SSW,193,0.0,0.0,85,0.00,SCT,,0.00,192.0,WeatherDisplay:10.37,2013-09-23 13:09:00,
2013-09-23 09:14:00,83.8,78.1,29.93,SSW,193,0.0,0.0,83,0.00,SCT,,0.00,257.0,WeatherDisplay:10.37,2013-09-23 13:14:00,
2013-09-23 09:19:00,84.4,78.7,29.93,SSW,193,0.0,0.0,83,0.00,SCT,,0.00,352.0,WeatherDisplay:10.37,2013-09-23 13:19:00,
2013-09-23 09:24:00,85.1,78.6,29.94,SSW,193,0.0,0.0,81,0.00,FEW,,0.00,320.0,WeatherDisplay:10.37,2013-09-23 13:24:00,
2013-09-23 09:29:00,85.9,79.0,29.94,SSW,193,0.0,0.0,80,0.00,FEW,,0.00,406.0,WeatherDisplay:10.37,2013-09-23 13:29:00,
2013-09-23 09:34:00,86.6,78.5,29.94,SSW,205,0.0,0.0,77,0.00,FEW,,0.00,436.0,WeatherDisplay:10.37,2013-09-23 13:34:00,
2013-09-23 09:39:00,87.5,79.0,29.94,SSW,207,0.0,0.0,76,0.00,FEW,,0.00,450.0,WeatherDisplay:10.37,2013-09-23 13:39:00,
2013-09-23 09:44:00,88.0,78.7,29.94,SSW,207,0.0,0.0,74,0.00,FEW,,0.00,165.0,WeatherDisplay:10.37,2013-09-23 13:44:00,
2013-09-23 09:49:00,88.3,78.5,29.93,SSW,207,0.0,0.0,73,0.00,SCT,,0.00,162.0,WeatherDisplay:10.37,2013-09-23 13:49:00,
2013-09-23 09:54:00,88.6,78.4,29.93,SSW,207,0.0,0.0,72,0.00,BKN,,0.00,471.0,WeatherDisplay:10.37,2013-09-23 13:54:00,
2013-09-23 09:59:00,88.7,78.5,29.94,SSW,206,0.0,0.0,72,0.00,BKN,,0.00,155.0,WeatherDisplay:10.37,2013-09-23 13:59:00,
2013-09-23 10:04:00,88.4,77.8,29.94,SSW,206,0.0,0.0,71,0.00,BKN,,0.00,171.0,WeatherDisplay:10.37,2013-09-23 14:04:00,
2013-09-23 10:09:00,87.5,77.8,29.93,SSW,206,0.0,0.0,73,0.00,BKN,,0.00,413.0,WeatherDisplay:10.37,2013-09-23 14:09:00,
2013-09-23 10:15:00,87.3,77.6,29.94,SSW,206,0.0,0.0,73,0.00,BKN,,0.00,146.0,WeatherDisplay:10.37,2013-09-23 14:15:00,
2013-09-23 10:20:00,87.3,77.6,29.94,SSW,206,0.0,0.0,73,0.00,BKN,,0.00,171.0,WeatherDisplay:10.37,2013-09-23 14:20:00,
2013-09-23 10:25:00,87.2,77.9,29.93,SSW,206,0.0,0.0,74,0.00,BKN,,0.00,207.0,WeatherDisplay:10.37,2013-09-23 14:25:00,
2013-09-23 10:30:00,87.1,77.8,29.94,SSW,206,0.0,0.0,74,0.00,BKN,,0.00,483.0,WeatherDisplay:10.37,2013-09-23 14:30:00,
2013-09-23 10:35:00,87.1,77.8,29.94,ENE,57,0.3,2.3,74,0.00,SCT,,0.00,487.0,WeatherDisplay:10.37,2013-09-23 14:35:00,
2013-09-23 10:40:00,87.1,78.2,29.94,ENE,57,0.0,0.0,75,0.00,SCT,,0.00,192.0,WeatherDisplay:10.37,2013-09-23 14:40:00,
2013-09-23 10:45:00,86.8,77.9,29.94,NE,51,0.7,2.3,75,0.00,BKN,,0.00,255.0,WeatherDisplay:10.37,2013-09-23 14:45:00,
2013-09-23 10:50:00,86.6,78.1,29.94,ENE,78,1.2,2.3,76,0.00,BKN,,0.00,248.0,WeatherDisplay:10.37,2013-09-23 14:50:00,
2013-09-23 10:55:00,86.3,77.4,29.94,East,96,2.1,3.5,75,0.00,BKN,,0.00,200.0,WeatherDisplay:10.37,2013-09-23 14:55:00,
2013-09-23 11:00:00,85.9,77.1,29.94,ENE,64,3.0,5.8,75,0.00,BKN,,0.00,323.0,WeatherDisplay:10.37,2013-09-23 15:00:00,
2013-09-23 11:05:00,85.6,77.9,29.94,ESE,107,0.6,2.3,78,0.00,BKN,,0.00,288.0,WeatherDisplay:10.37,2013-09-23 15:05:00,
2013-09-23 11:10:00,85.5,77.9,29.94,ESE,102,0.0,0.0,78,0.00,BKN,,0.00,383.0,WeatherDisplay:10.37,2013-09-23 15:10:00,
2013-09-23 11:15:00,85.7,78.4,29.94,ESE,109,1.5,3.5,79,0.00,BKN,,0.00,744.0,WeatherDisplay:10.37,2013-09-23 15:15:00,
2013-09-23 11:20:00,86.2,78.5,29.94,ESE,104,3.3,5.8,78,0.00,SCT,,0.00,575.0,WeatherDisplay:10.37,2013-09-23 15:20:00,
2013-09-23 11:25:00,86.4,78.3,29.94,ESE,113,1.9,5.8,77,0.00,SCT,,0.00,364.0,WeatherDisplay:10.37,2013-09-23 15:25:00,
2013-09-23 11:30:00,86.5,78.4,29.93,ESE,111,1.9,3.5,77,0.00,BKN,,0.00,506.0,WeatherDisplay:10.37,2013-09-23 15:30:00,
2013-09-23 11:35:00,87.1,79.0,29.94,ENE,75,2.3,3.5,77,0.00,FEW,,0.00,1130.0,WeatherDisplay:10.37,2013-09-23 15:35:00,
2013-09-23 11:40:00,87.8,78.9,29.94,ESE,123,0.6,3.5,75,0.00,FEW,,0.00,504.0,WeatherDisplay:10.37,2013-09-23 15:40:00,
2013-09-23 11:45:00,88.1,79.2,29.93,ESE,107,2.7,5.8,75,0.00,SCT,,0.00,469.0,WeatherDisplay:10.37,2013-09-23 15:45:00,
2013-09-23 11:50:00,87.7,78.8,29.93,ESE,115,3.7,5.8,75,0.00,BKN,,0.00,329.0,WeatherDisplay:10.37,2013-09-23 15:50:00,
2013-09-23 11:55:00,87.3,78.8,29.93,ESE,116,1.3,3.5,76,0.00,BKN,,0.00,197.0,WeatherDisplay:10.37,2013-09-23 15:55:00,
2013-09-23 12:00:00,86.7,78.2,29.93,SE,142,0.9,6.0,76,0.00,BKN,,0.00,239.0,WeatherDisplay:10.37,2013-09-23 16:00:00,
2013-09-23 12:05:00,86.2,78.1,29.93,ESE,119,3.6,8.1,77,0.00,BKN,,0.00,220.0,WeatherDisplay:10.37,2013-09-23 16:05:00,
2013-09-23 12:10:00,85.6,77.6,29.93,ESE,107,3.5,8.1,77,0.00,BKN,,0.00,169.0,WeatherDisplay:10.37,2013-09-23 16:10:00,
2013-09-23 12:15:00,85.2,77.6,29.93,East,100,2.5,6.9,78,0.00,BKN,,0.00,130.0,WeatherDisplay:10.37,2013-09-23 16:15:00,
2013-09-23 12:20:00,84.7,78.6,29.93,SE,136,3.6,5.8,82,0.01,RA,,0.01,90.0,WeatherDisplay:10.37,2013-09-23 16:20:00,
2013-09-23 12:25:00,84.2,78.5,29.94,ESE,117,0.0,2.3,83,0.01,RA,,0.01,58.0,WeatherDisplay:10.37,2013-09-23 16:25:00,
2013-09-23 12:30:00,83.7,78.0,29.94,ESE,120,0.1,2.3,83,0.01,BKN,,0.01,26.0,WeatherDisplay:10.37,2013-09-23 16:30:00,
2013-09-23 12:35:00,83.2,77.9,29.94,ESE,109,2.4,3.5,84,0.01,OVC,,0.01,11.0,WeatherDisplay:10.37,2013-09-23 16:35:00,
2013-09-23 12:40:00,82.7,78.4,29.95,WSW,248,0.3,1.1,87,0.11,RA,,0.11,7.0,WeatherDisplay:10.37,2013-09-23 16:40:00,
2013-09-23 12:45:00,82.1,78.5,29.96,WSW,255,0.9,3.5,89,0.12,RA,,0.13,5.0,WeatherDisplay:10.37,2013-09-23 16:45:00,
2013-09-23 12:50:00,81.4,77.8,29.96,West,269,0.0,3.5,89,0.15,RA,,0.19,7.0,WeatherDisplay:10.37,2013-09-23 16:50:00,
2013-09-23 12:55:00,80.1,76.2,29.94,West,279,0.0,0.0,88,0.23,RA,,0.23,12.0,WeatherDisplay:10.37,2013-09-23 16:55:00,
2013-09-23 13:00:00,79.3,76.1,29.94,West,279,0.0,0.0,90,0.23,RA,,0.23,19.0,WeatherDisplay:10.37,2013-09-23 17:00:00,
2013-09-23 13:05:00,78.8,75.9,29.94,NNE,13,0.1,0.0,91,0.23,OVC,,0.23,21.0,WeatherDisplay:10.37,2013-09-23 17:05:00,
2013-09-23 13:10:00,78.5,76.0,29.94,NNE,13,0.0,0.0,92,0.23,OVC,,0.23,18.0,WeatherDisplay:10.37,2013-09-23 17:10:00,
2013-09-23 13:15:00,78.2,76.0,29.95,ESE,103,0.0,0.0,93,0.23,OVC,,0.23,16.0,WeatherDisplay:10.37,2013-09-23 17:15:00,
2013-09-23 13:20:00,77.9,75.4,29.94,East,96,0.0,0.0,92,0.22,OVC,,0.23,70.0,WeatherDisplay:10.37,2013-09-23 17:20:00,
2013-09-23 13:25:00,77.3,74.8,29.93,NE,34,0.0,0.0,92,0.22,BKN,,0.23,134.0,WeatherDisplay:10.37,2013-09-23 17:25:00,
2013-09-23 13:30:00,77.0,74.8,29.93,NNE,33,0.0,0.0,93,0.22,BKN,,0.23,127.0,WeatherDisplay:10.37,2013-09-23 17:30:00,
2013-09-23 13:35:00,77.0,75.1,29.93,NNE,27,0.0,0.0,94,0.22,BKN,,0.23,137.0,WeatherDisplay:10.37,2013-09-23 17:35:00,
2013-09-23 13:40:00,77.2,75.3,29.94,NNE,30,2.0,3.5,94,0.12,BKN,,0.23,155.0,WeatherDisplay:10.37,2013-09-23 17:40:00,
2013-09-23 13:45:00,77.3,75.4,29.94,ENE,60,1.8,4.6,94,0.11,BKN,,0.23,193.0,WeatherDisplay:10.37,2013-09-23 17:45:00,
2013-09-23 13:50:00,77.5,76.0,29.94,NE,55,0.0,0.0,95,0.04,BKN,,0.23,185.0,WeatherDisplay:10.37,2013-09-23 17:50:00,
2013-09-23 13:55:00,77.7,75.8,29.94,ENE,65,0.3,4.0,94,0.00,BKN,,0.23,239.0,WeatherDisplay:10.37,2013-09-23 17:55:00,
2013-09-23 14:00:00,78.0,76.1,29.93,NE,55,0.0,0.0,94,0.00,BKN,,0.23,399.0,WeatherDisplay:10.37,2013-09-23 18:00:00,
2013-09-23 14:05:00,78.5,76.6,29.93,ENE,57,0.0,0.0,94,0.00,BKN,,0.23,325.0,WeatherDisplay:10.37,2013-09-23 18:05:00,
2013-09-23 14:10:00,78.5,76.3,29.93,NE,49,0.0,0.0,93,0.00,BKN,,0.23,299.0,WeatherDisplay:10.37,2013-09-23 18:10:00,
2013-09-23 14:15:00,78.8,76.9,29.93,ENE,76,0.6,2.3,94,0.00,BKN,,0.23,285.0,WeatherDisplay:10.37,2013-09-23 18:15:00,
2013-09-23 14:20:00,79.1,77.2,29.93,ENE,71,0.0,0.0,94,0.00,BKN,,0.23,336.0,WeatherDisplay:10.37,2013-09-23 18:20:00,
2013-09-23 14:25:00,79.4,77.5,29.93,ENE,78,0.0,0.0,94,0.00,BKN,,0.23,294.0,WeatherDisplay:10.37,2013-09-23 18:25:00,
2013-09-23 14:30:00,79.6,77.1,29.93,ESE,107,1.8,4.6,92,0.00,BKN,,0.23,373.0,WeatherDisplay:10.37,2013-09-23 18:30:00,
2013-09-23 14:35:00,79.7,77.5,29.93,East,100,0.9,3.5,93,0.00,BKN,,0.23,403.0,WeatherDisplay:10.37,2013-09-23 18:35:00,
2013-09-23 14:40:00,79.9,77.4,29.93,ENE,59,0.2,3.5,92,0.00,BKN,,0.23,401.0,WeatherDisplay:10.37,2013-09-23 18:40:00,
2013-09-23 14:45:00,80.2,77.3,29.93,East,80,0.1,3.5,91,0.00,BKN,,0.23,371.0,WeatherDisplay:10.37,2013-09-23 18:45:00,
2013-09-23 14:50:00,80.3,77.1,29.93,SE,137,0.6,3.5,90,0.00,BKN,,0.23,308.0,WeatherDisplay:10.37,2013-09-23 18:50:00,
2013-09-23 14:55:00,80.5,77.3,29.93,ESE,106,0.0,0.0,90,0.00,BKN,,0.23,288.0,WeatherDisplay:10.37,2013-09-23 18:55:00,
2013-09-23 15:00:00,80.6,77.4,29.94,ESE,105,0.0,0.0,90,0.00,BKN,,0.23,190.0,WeatherDisplay:10.37,2013-09-23 19:00:00,
2013-09-23 15:05:00,80.5,77.0,29.93,ESE,107,0.0,0.0,89,0.00,BKN,,0.23,146.0,WeatherDisplay:10.37,2013-09-23 19:05:00,
2013-09-23 15:10:00,80.5,77.3,29.93,ESE,107,0.0,0.0,90,0.00,BKN,,0.23,186.0,WeatherDisplay:10.37,2013-09-23 19:10:00,
2013-09-23 15:15:00,80.5,77.3,29.93,ESE,117,0.0,0.0,90,0.00,BKN,,0.23,199.0,WeatherDisplay:10.37,2013-09-23 19:15:00,
2013-09-23 15:20:00,80.4,76.9,29.92,ENE,77,0.0,0.0,89,0.00,BKN,,0.23,209.0,WeatherDisplay:10.37,2013-09-23 19:20:00,
2013-09-23 15:25:00,80.4,76.9,29.92,ENE,78,0.0,0.0,89,0.00,BKN,,0.23,192.0,WeatherDisplay:10.37,2013-09-23 19:25:00,
2013-09-23 15:30:00,80.5,77.0,29.92,ESE,104,0.0,0.0,89,0.00,BKN,,0.23,188.0,WeatherDisplay:10.37,2013-09-23 19:30:00,
2013-09-23 15:35:00,80.5,76.6,29.92,East,97,0.0,0.0,88,0.00,BKN,,0.23,165.0,WeatherDisplay:10.37,2013-09-23 19:35:00,
2013-09-23 15:40:00,80.4,76.9,29.92,ESE,109,0.0,0.0,89,0.00,BKN,,0.23,130.0,WeatherDisplay:10.37,2013-09-23 19:40:00,
2013-09-23 15:45:00,80.3,76.8,29.92,ESE,108,0.0,0.0,89,0.00,BKN,,0.23,114.0,WeatherDisplay:10.37,2013-09-23 19:45:00,
2013-09-23 15:50:00,80.2,76.7,29.92,East,100,0.0,0.0,89,0.00,BKN,,0.23,102.0,WeatherDisplay:10.37,2013-09-23 19:50:00,
2013-09-23 15:55:00,80.1,76.6,29.93,SE,139,0.0,0.0,89,0.00,BKN,,0.23,93.0,WeatherDisplay:10.37,2013-09-23 19:55:00,
2013-09-23 16:00:00,80.1,76.6,29.93,SE,143,0.0,0.0,89,0.00,BKN,,0.23,70.0,WeatherDisplay:10.37,2013-09-23 20:00:00,
2013-09-23 16:05:00,80.0,76.5,29.93,ESE,103,1.5,3.5,89,0.00,BKN,,0.23,77.0,WeatherDisplay:10.37,2013-09-23 20:05:00,
2013-09-23 16:11:00,80.0,76.5,29.93,ESE,123,0.0,1.1,89,0.00,BKN,,0.23,84.0,WeatherDisplay:10.37,2013-09-23 20:11:00,
2013-09-23 16:16:00,80.0,76.5,29.93,SE,134,0.0,0.0,89,0.00,BKN,,0.23,84.0,WeatherDisplay:10.37,2013-09-23 20:16:00,
2013-09-23 16:21:00,79.9,76.0,29.92,SSE,155,1.3,3.5,88,0.00,BKN,,0.23,51.0,WeatherDisplay:10.37,2013-09-23 20:21:00,
2013-09-23 16:26:00,79.7,75.8,29.92,SSE,154,1.0,7.0,88,0.00,BKN,BKN,0.23,46.0,WeatherDisplay:10.37,2013-09-23 20:26:00,
2013-09-23 16:31:00,79.4,75.2,29.91,South,169,0.0,1.0,87,0.00,BKN,BKN,0.23,65.0,WeatherDisplay:10.37,2013-09-23 20:31:00,
2013-09-23 16:36:00,79.3,75.4,29.91,South,173,0.3,3.0,88,0.00,BKN,,0.23,74.0,WeatherDisplay:10.37,2013-09-23 20:36:00,
2013-09-23 16:41:00,79.1,75.3,29.91,SSE,161,0.0,3.0,88,0.00,BKN,BKN,0.23,69.0,WeatherDisplay:10.37,2013-09-23 20:41:00,
2013-09-23 16:46:00,78.9,75.0,29.91,South,173,0.0,0.0,88,0.00,BKN,,0.23,60.0,WeatherDisplay:10.37,2013-09-23 20:46:00,
2013-09-23 16:51:00,78.9,75.0,29.91,South,173,0.0,0.0,88,0.00,BKN,,0.23,58.0,WeatherDisplay:10.37,2013-09-23 20:51:00,
2013-09-23 16:56:00,78.7,74.8,29.91,SSE,155,0.0,0.0,88,0.00,BKN,,0.23,54.0,WeatherDisplay:10.37,2013-09-23 20:56:00,
2013-09-23 17:01:00,78.7,74.5,29.92,SSE,154,0.4,2.3,87,0.00,BKN,,0.23,51.0,WeatherDisplay:10.37,2013-09-23 21:01:00,
2013-09-23 17:06:00,78.7,74.5,29.92,SSE,154,0.0,0.0,87,0.00,BKN,,0.23,47.0,WeatherDisplay:10.37,2013-09-23 21:06:00,
2013-09-23 17:11:00,78.7,74.5,29.92,SSE,154,0.0,1.0,87,0.00,BKN,BKN,0.23,35.0,WeatherDisplay:10.37,2013-09-23 21:11:00,
2013-09-23 17:16:00,78.7,74.2,29.92,SSE,154,0.0,0.0,86,0.00,BKN,,0.23,28.0,WeatherDisplay:10.37,2013-09-23 21:16:00,
2013-09-23 17:21:00,78.7,74.5,29.93,SSE,154,0.0,0.0,87,0.00,BKN,,0.23,23.0,WeatherDisplay:10.37,2013-09-23 21:21:00,
2013-09-23 17:26:00,78.6,74.8,29.93,SSE,154,0.0,0.0,88,0.00,BKN,BKN,0.23,21.0,WeatherDisplay:10.37,2013-09-23 21:26:00,
2013-09-23 17:31:00,78.6,74.7,29.93,SSE,154,0.0,0.0,88,0.00,BKN,,0.23,23.0,WeatherDisplay:10.37,2013-09-23 21:31:00,
2013-09-23 17:36:00,78.6,74.7,29.92,SSE,154,0.0,0.0,88,0.00,BKN,,0.23,28.0,WeatherDisplay:10.37,2013-09-23 21:36:00,
2013-09-23 17:41:00,78.6,74.7,29.93,SSE,154,0.0,0.0,88,0.00,BKN,,0.23,21.0,WeatherDisplay:10.37,2013-09-23 21:41:00,
2013-09-23 17:46:00,78.6,75.1,29.94,SSE,154,0.0,0.0,89,0.00,BKN,,0.23,18.0,WeatherDisplay:10.37,2013-09-23 21:46:00,
2013-09-23 17:51:00,78.5,75.0,29.94,SSE,154,0.0,0.0,89,0.00,BKN,,0.23,21.0,WeatherDisplay:10.37,2013-09-23 21:51:00,
2013-09-23 17:56:00,78.5,75.3,29.94,SSE,154,0.0,0.0,90,0.00,BKN,,0.23,21.0,WeatherDisplay:10.37,2013-09-23 21:56:00,
2013-09-23 18:01:00,78.4,75.2,29.94,SSE,154,0.0,0.0,90,0.00,BKN,,0.23,19.0,WeatherDisplay:10.37,2013-09-23 22:01:00,
2013-09-23 18:06:00,78.4,75.2,29.94,SSE,154,0.0,0.0,90,0.00,BKN,,0.23,21.0,WeatherDisplay:10.37,2013-09-23 22:06:00,
2013-09-23 18:11:00,78.5,75.3,29.94,SSE,154,0.0,0.0,90,0.00,BKN,BKN,0.23,21.0,WeatherDisplay:10.37,2013-09-23 22:11:00,
2013-09-23 18:16:00,78.6,75.4,29.94,SSE,154,0.0,0.0,90,0.00,BKN,,0.23,21.0,WeatherDisplay:10.37,2013-09-23 22:16:00,
2013-09-23 18:21:00,78.6,75.4,29.94,SSE,154,0.0,0.0,90,0.00,BKN,,0.23,21.0,WeatherDisplay:10.37,2013-09-23 22:21:00,
2013-09-23 18:26:00,78.5,75.3,29.94,SSE,154,0.0,0.0,90,0.00,BKN,,0.23,21.0,WeatherDisplay:10.37,2013-09-23 22:26:00,
2013-09-23 18:31:00,78.6,75.4,29.94,SSE,154,0.0,0.0,90,0.00,BKN,BKN,0.23,23.0,WeatherDisplay:10.37,2013-09-23 22:31:00,
2013-09-23 18:36:00,78.7,75.5,29.94,SSE,154,0.0,0.0,90,0.00,BKN,,0.23,25.0,WeatherDisplay:10.37,2013-09-23 22:36:00,
2013-09-23 18:41:00,78.7,75.5,29.94,SSE,154,0.0,0.0,90,0.00,BKN,,0.23,25.0,WeatherDisplay:10.37,2013-09-23 22:41:00,
2013-09-23 18:46:00,78.7,75.2,29.94,SSE,154,0.0,0.0,89,0.00,BKN,,0.23,23.0,WeatherDisplay:10.37,2013-09-23 22:46:00,
2013-09-23 18:51:00,78.7,75.2,29.95,SSE,154,0.0,0.0,89,0.00,BKN,,0.23,19.0,WeatherDisplay:10.37,2013-09-23 22:51:00,
2013-09-23 18:56:00,78.8,75.3,29.95,SSE,154,0.0,0.0,89,0.00,BKN,,0.23,14.0,WeatherDisplay:10.37,2013-09-23 22:56:00,
2013-09-23 19:01:00,78.8,75.3,29.95,SSE,154,0.0,0.0,89,0.00,BKN,BKN,0.23,9.0,WeatherDisplay:10.37,2013-09-23 23:01:00,
2013-09-23 19:06:00,78.8,75.2,29.96,SSE,154,0.0,0.0,89,0.00,BKN,BKN,0.23,5.0,WeatherDisplay:10.37,2013-09-23 23:06:00,
2013-09-23 19:11:00,78.8,75.6,29.96,SSE,154,0.0,0.0,90,0.00,OVC,,0.23,0.0,WeatherDisplay:10.37,2013-09-23 23:11:00,
2013-09-23 19:16:00,78.7,75.5,29.96,SSE,154,0.0,0.0,90,0.00,OVC,,0.23,0.0,WeatherDisplay:10.37,2013-09-23 23:16:00,
2013-09-23 19:21:00,78.7,75.5,29.96,SSE,154,0.0,0.0,90,0.00,OVC,,0.23,0.0,WeatherDisplay:10.37,2013-09-23 23:21:00,
2013-09-23 19:26:00,78.6,75.4,29.95,SSE,154,0.0,0.0,90,0.00,OVC,,0.23,0.0,WeatherDisplay:10.37,2013-09-23 23:26:00,
2013-09-23 19:31:00,78.6,75.8,29.95,SSE,154,0.0,0.0,91,0.00,OVC,,0.23,0.0,WeatherDisplay:10.37,2013-09-23 23:31:00,
2013-09-23 19:36:00,78.5,75.7,29.95,SSE,154,0.0,0.0,91,0.00,OVC,OVC,0.23,0.0,WeatherDisplay:10.37,2013-09-23 23:36:00,
2013-09-23 19:41:00,78.5,75.7,29.95,SSE,154,0.0,0.0,91,0.00,OVC,,0.23,0.0,WeatherDisplay:10.37,2013-09-23 23:41:00,
2013-09-23 19:46:00,78.4,75.6,29.96,SSE,154,0.0,0.0,91,0.00,OVC,,0.23,0.0,WeatherDisplay:10.37,2013-09-23 23:46:00,
2013-09-23 19:51:00,78.4,75.2,29.96,SSE,154,0.0,0.0,90,0.00,CLR,,0.23,0.0,WeatherDisplay:10.37,2013-09-23 23:51:00,
2013-09-23 19:56:00,78.4,75.2,29.96,SSE,154,0.0,0.0,90,0.00,CLR,CLR,0.23,0.0,WeatherDisplay:10.37,2013-09-23 23:56:00,
2013-09-23 20:01:00,78.4,75.2,29.96,SSE,154,0.0,0.0,90,0.00,CLR,CLR,0.23,0.0,WeatherDisplay:10.37,2013-09-24 00:01:00,
2013-09-23 20:06:00,78.4,75.2,29.97,SSE,154,0.0,0.0,90,0.00,CLR,,0.23,0.0,WeatherDisplay:10.37,2013-09-24 00:06:00,
2013-09-23 20:11:00,78.5,75.3,29.97,SSE,154,0.0,0.0,90,0.00,CLR,,0.23,0.0,WeatherDisplay:10.37,2013-09-24 00:11:00,
2013-09-23 20:16:00,78.5,75.0,29.97,SSE,152,0.0,0.0,89,0.00,CLR,,0.23,0.0,WeatherDisplay:10.37,2013-09-24 00:16:00,
2013-09-23 20:21:00,78.6,75.1,29.97,SE,144,0.0,0.0,89,0.00,CLR,,0.23,0.0,WeatherDisplay:10.37,2013-09-24 00:21:00,
2013-09-23 20:26:00,78.6,75.1,29.97,SE,143,0.0,0.0,89,0.00,CLR,,0.23,0.0,WeatherDisplay:10.37,2013-09-24 00:26:00,
2013-09-23 20:31:00,78.7,75.5,29.97,NE,35,0.9,3.5,90,0.00,CLR,,0.23,0.0,WeatherDisplay:10.37,2013-09-24 00:31:00,
2013-09-23 20:36:00,78.9,76.0,29.97,NE,34,0.2,3.0,91,0.00,CLR,,0.23,0.0,WeatherDisplay:10.37,2013-09-24 00:36:00,
2013-09-23 20:41:00,79.0,76.1,29.97,NE,51,1.9,3.5,91,0.00,CLR,,0.23,0.0,WeatherDisplay:10.37,2013-09-24 00:41:00,
2013-09-23 20:46:00,79.1,76.2,29.97,NE,42,0.7,3.5,91,0.00,CLR,,0.23,0.0,WeatherDisplay:10.37,2013-09-24 00:46:00,
2013-09-23 20:51:00,79.0,76.1,29.97,NE,37,1.0,3.5,91,0.00,CLR,,0.23,0.0,WeatherDisplay:10.37,2013-09-24 00:51:00,
2013-09-23 20:56:00,78.9,76.4,29.97,NE,42,0.0,0.0,92,0.00,CLR,,0.23,0.0,WeatherDisplay:10.37,2013-09-24 00:56:00,
2013-09-23 21:01:00,78.7,76.2,29.98,NNE,25,1.7,4.6,92,0.00,CLR,,0.23,0.0,WeatherDisplay:10.37,2013-09-24 01:01:00,
2013-09-23 21:06:00,78.7,76.2,29.98,NNE,25,0.0,0.0,92,0.00,CLR,,0.23,0.0,WeatherDisplay:10.37,2013-09-24 01:06:00,
2013-09-23 21:11:00,78.7,76.2,29.97,NNE,24,0.0,0.0,92,0.00,CLR,,0.23,0.0,WeatherDisplay:10.37,2013-09-24 01:11:00,
2013-09-23 21:16:00,78.7,75.8,29.98,ENE,61,0.6,2.3,91,0.00,CLR,,0.23,0.0,WeatherDisplay:10.37,2013-09-24 01:16:00,
2013-09-23 21:21:00,78.7,75.8,29.98,NNE,22,0.3,1.0,91,0.00,CLR,,0.23,0.0,WeatherDisplay:10.37,2013-09-24 01:21:00,
2013-09-23 21:26:00,78.7,76.2,29.98,NE,46,0.0,0.0,92,0.00,CLR,,0.23,0.0,WeatherDisplay:10.37,2013-09-24 01:26:00,
2013-09-23 21:31:00,78.7,75.8,29.98,ENE,71,0.0,0.0,91,0.00,CLR,,0.23,0.0,WeatherDisplay:10.37,2013-09-24 01:31:00,
2013-09-23 21:36:00,78.8,75.9,29.98,NE,47,0.0,0.0,91,0.00,CLR,,0.23,0.0,WeatherDisplay:10.37,2013-09-24 01:36:00,
2013-09-23 21:41:00,78.9,76.0,29.98,NE,49,0.0,0.0,91,0.00,CLR,,0.23,0.0,WeatherDisplay:10.37,2013-09-24 01:41:00,
2013-09-23 21:46:00,78.9,76.0,29.98,ENE,64,0.0,0.0,91,0.00,CLR,,0.23,0.0,WeatherDisplay:10.37,2013-09-24 01:46:00,
2013-09-23 21:51:00,78.9,76.4,29.98,ENE,67,2.0,4.0,92,0.00,CLR,,0.23,0.0,WeatherDisplay:10.37,2013-09-24 01:51:00,
2013-09-23 21:56:00,78.9,76.4,29.99,NE,34,1.2,4.6,92,0.00,CLR,,0.23,0.0,WeatherDisplay:10.37,2013-09-24 01:56:00,
2013-09-23 22:01:00,78.8,76.3,29.98,NNE,30,0.3,2.3,92,0.00,CLR,,0.23,0.0,WeatherDisplay:10.37,2013-09-24 02:01:00,
2013-09-23 22:06:00,78.7,76.5,29.99,NNE,30,0.0,0.0,93,0.00,CLR,,0.23,0.0,WeatherDisplay:10.37,2013-09-24 02:06:00,
2013-09-23 22:11:00,78.6,76.4,29.99,NNE,30,0.0,0.0,93,0.00,CLR,,0.23,0.0,WeatherDisplay:10.37,2013-09-24 02:11:00,
2013-09-23 22:16:00,78.5,76.3,29.99,NNE,30,0.0,0.0,93,0.00,CLR,,0.23,0.0,WeatherDisplay:10.37,2013-09-24 02:16:00,
2013-09-23 22:21:00,78.4,76.2,29.99,NNE,30,0.0,0.0,93,0.00,CLR,,0.23,0.0,WeatherDisplay:10.37,2013-09-24 02:21:00,
2013-09-23 22:26:00,78.3,76.4,30.00,SE,136,0.0,0.0,94,0.00,CLR,,0.23,0.0,WeatherDisplay:10.37,2013-09-24 02:26:00,
2013-09-23 22:31:00,78.3,76.4,30.00,SSE,148,0.0,0.0,94,0.00,CLR,,0.23,0.0,WeatherDisplay:10.37,2013-09-24 02:31:00,
2013-09-23 22:36:00,78.3,76.4,29.99,East,91,0.0,0.0,94,0.00,CLR,,0.23,0.0,WeatherDisplay:10.37,2013-09-24 02:36:00,
2013-09-23 22:41:00,78.2,76.3,29.99,East,80,0.0,1.1,94,0.00,CLR,,0.23,0.0,WeatherDisplay:10.37,2013-09-24 02:41:00,
2013-09-23 22:46:00,78.2,76.6,29.99,ENE,74,0.9,3.5,95,0.00,CLR,,0.23,0.0,WeatherDisplay:10.37,2013-09-24 02:46:00,
2013-09-23 22:51:00,78.0,76.1,29.99,East,89,0.0,0.0,94,0.00,CLR,,0.23,0.0,WeatherDisplay:10.37,2013-09-24 02:51:00,
2013-09-23 22:56:00,77.9,76.0,29.99,ENE,74,0.0,0.0,94,0.00,CLR,,0.23,0.0,WeatherDisplay:10.37,2013-09-24 02:56:00,
2013-09-23 23:01:00,77.9,76.0,29.99,ENE,74,0.0,0.0,94,0.00,CLR,,0.23,0.0,WeatherDisplay:10.37,2013-09-24 03:01:00,
2013-09-23 23:06:00,77.8,75.9,29.99,ENE,74,0.0,0.0,94,0.00,CLR,,0.23,0.0,WeatherDisplay:10.37,2013-09-24 03:06:00,
2013-09-23 23:11:00,77.8,75.9,29.99,NE,35,1.1,3.5,94,0.00,CLR,,0.23,0.0,WeatherDisplay:10.37,2013-09-24 03:11:00,
2013-09-23 23:16:00,77.7,75.8,30.00,ENE,61,1.0,3.5,94,0.00,CLR,,0.23,0.0,WeatherDisplay:10.37,2013-09-24 03:16:00,
2013-09-23 23:21:00,77.6,75.7,30.00,ENE,61,0.0,0.0,94,0.00,CLR,,0.23,0.0,WeatherDisplay:10.37,2013-09-24 03:21:00,
2013-09-23 23:26:00,77.5,75.6,30.00,ENE,71,0.0,0.0,94,0.00,CLR,,0.23,0.0,WeatherDisplay:10.37,2013-09-24 03:26:00,
2013-09-23 23:31:00,77.6,76.1,29.99,ENE,77,0.1,0.0,95,0.00,CLR,,0.23,0.0,WeatherDisplay:10.37,2013-09-24 03:31:00,
2013-09-23 23:36:00,77.8,76.3,29.99,NE,53,0.3,3.5,95,0.00,CLR,,0.23,0.0,WeatherDisplay:10.37,2013-09-24 03:36:00,
2013-09-23 23:41:00,77.8,76.3,29.99,ENE,62,0.0,2.3,95,0.00,CLR,,0.23,0.0,WeatherDisplay:10.37,2013-09-24 03:41:00,
2013-09-23 23:46:00,77.9,76.4,29.99,ENE,62,0.0,0.0,95,0.00,CLR,,0.23,0.0,WeatherDisplay:10.37,2013-09-24 03:46:00,
2013-09-23 23:51:00,77.7,75.8,29.98,ENE,60,0.0,0.0,94,0.00,CLR,,0.23,0.0,WeatherDisplay:10.37,2013-09-24 03:51:00,
2013-09-23 23:56:00,77.7,75.8,29.99,ESE,110,0.1,1.1,94,0.00,CLR,,0.23,0.0,WeatherDisplay:10.37,2013-09-24 03:56:00,